Weather reports worldwide

Advertisment
Bujaraloz, Spain (8165): temperature & dewpoint: 25.03.2020 04:00:00 - 31.03.2020 04:00:00 (CEST)Bujaraloz, Spain (8165): wind speed & gusts: 25.03.2020 04:00:00 - 31.03.2020 04:00:00 (CEST)Bujaraloz, Spain (8165): wind direction: 25.03.2020 04:00:00 - 31.03.2020 04:00:00 (CEST)Bujaraloz, Spain (8165): reduced air pressure: 25.03.2020 04:00:00 - 31.03.2020 04:00:00 (CEST)Bujaraloz, Spain (8165): visibility: 25.03.2020 04:00:00 - 31.03.2020 04:00:00 (CEST)Bujaraloz, Spain (8165): sunshine duration: 25.03.2020 04:00:00 - 31.03.2020 04:00:00 (CEST)Bujaraloz, Spain (8165): precipitation: 25.03.2020 04:00:00 - 31.03.2020 04:00:00 (CEST)
Date & Time tt [°C] td [°C] ff [km/h] ff [kn] fx [km/h] fx [kn] dd ppp [hPa] vv [km] sd [min] rr [mm]
31.03.2020 04:00:00 - - - - - - - - - - -
31.03.2020 03:00:00 3,7 2,7 9 5 13 7 SW 1014,2 14 0 0,6
31.03.2020 02:00:00 4,4 2,7 6 3 9 5 SW 1014,4 20 0 -
31.03.2020 01:00:00 4,6 1,9 7 4 14 8 SSW 1014,8 20 0 0,0
31.03.2020 00:00:00 5,1 0,9 8 5 18 10 WSW 1015,1 20 0 0,0
30.03.2020 23:00:00 5,9 0,2 11 6 21 11 WNW 1015,3 20 0 0,0
30.03.2020 22:00:00 6,1 0,4 9 5 26 14 W 1015,3 20 0 0,0
30.03.2020 21:00:00 6,7 -0,7 20 11 36 19 WNW 1014,8 20 0 0,0
30.03.2020 20:00:00 8,0 -3,0 23 12 33 18 WNW 1013,8 20 0 -
30.03.2020 19:00:00 8,8 -2,7 18 10 23 13 W 1013,5 20 0 0,0
30.03.2020 18:00:00 9,1 -3,3 16 9 25 14 WSW 1013,5 20 0 0,0
30.03.2020 17:00:00 8,7 -3,6 18 10 25 14 WSW 1013,8 20 0 0,0
30.03.2020 16:00:00 8,3 -3,6 20 11 31 17 W 1014,5 20 0 0,0
30.03.2020 15:00:00 8,1 -3,9 22 12 44 24 WNW 1015,2 20 11 0,0
30.03.2020 14:00:00 7,8 -4,8 30 16 46 25 WNW 1015,6 20 35 -
30.03.2020 13:00:00 7,6 -5,1 32 17 48 26 WNW 1016,1 20 15 0,0
30.03.2020 12:00:00 7,1 -4,8 28 15 49 26 WNW 1016,2 20 4 0,0
30.03.2020 11:00:00 6,1 -4,2 34 18 48 26 WNW 1016,4 20 0 0,0
30.03.2020 10:00:00 6,0 -3,3 33 18 50 27 WNW 1016,0 20 0 0,0
30.03.2020 09:00:00 5,7 -2,0 36 19 55 30 W 1014,9 20 0 0,0
30.03.2020 08:00:00 5,6 -1,2 29 16 54 29 W 1014,4 20 0 -
30.03.2020 07:00:00 6,3 -0,5 46 25 64 35 WNW 1013,6 20 0 0,0
30.03.2020 06:00:00 6,8 0,9 37 20 62 33 W 1013,7 20 0 0,0
30.03.2020 05:00:00 7,7 1,7 44 24 61 33 WNW 1013,6 20 0 0,0
30.03.2020 04:00:00 8,5 2,9 35 19 53 28 W 1013,8 20 0 0,0
30.03.2020 03:00:00 9,1 3,9 26 14 46 25 W 1014,4 20 0 0,0
30.03.2020 02:00:00 9,4 4,5 35 19 53 29 W 1014,2 18 0 -
30.03.2020 01:00:00 9,8 4,1 36 19 49 26 W 1014,0 18 0 0,0
30.03.2020 00:00:00 10,2 4,1 32 17 53 28 W 1013,9 16 0 0,0
29.03.2020 23:00:00 10,9 3,6 36 19 50 27 W 1013,6 16 0 0,0
29.03.2020 22:00:00 11,8 4,3 37 20 51 28 W 1013,6 18 0 0,0
29.03.2020 21:00:00 13,3 5,0 36 19 49 27 W 1012,7 20 0 0,0
29.03.2020 20:00:00 15,4 4,8 26 14 53 29 WNW 1012,1 20 57 -
29.03.2020 19:00:00 17,0 3,6 34 18 49 27 WNW 1011,4 20 60 0,0
29.03.2020 18:00:00 18,0 1,1 35 19 48 26 WNW 1011,4 20 60 0,0
29.03.2020 17:00:00 18,2 0,4 38 20 52 28 WNW 1011,8 20 60 0,0
29.03.2020 16:00:00 18,1 1,5 32 17 49 27 WNW 1012,5 20 60 0,0
29.03.2020 15:00:00 17,1 1,1 34 18 46 25 WNW 1013,2 20 60 0,0
29.03.2020 14:00:00 15,7 1,1 38 21 48 26 WNW 1014,1 20 60 -
29.03.2020 13:00:00 15,2 1,7 31 17 44 24 WNW 1014,9 20 60 0,0
29.03.2020 12:00:00 13,5 0,4 34 19 52 28 WNW 1015,8 20 58 0,0
29.03.2020 11:00:00 12,1 1,7 29 16 42 23 WNW 1016,3 20 60 0,0
29.03.2020 10:00:00 10,4 3,0 23 13 33 18 W 1016,6 20 51 0,0
29.03.2020 09:00:00 8,9 2,7 18 10 34 18 W 1016,4 20 38 0,0
29.03.2020 08:00:00 8,3 2,5 20 11 31 17 W 1016,3 20 0 -
29.03.2020 07:00:00 8,0 3,0 24 13 31 17 W 1015,8 20 0 0,0
29.03.2020 06:00:00 8,3 3,4 23 12 31 17 W 1015,9 20 0 0,0
29.03.2020 05:00:00 8,5 4,1 25 14 32 17 W 1016,1 20 0 0,0
29.03.2020 04:00:00 8,1 4,3 26 14 29 15 W 1016,3 20 0 0,0
29.03.2020 03:00:00 8,8 4,6 22 12 23 12 W 1016,6 20 0 0,0
29.03.2020 02:00:00 9,5 4,6 18 10 21 11 W 1016,9 20 0 -
29.03.2020 01:00:00 10,6 4,5 5 3 10 5 WNW 1016,9 20 0 0,0
29.03.2020 00:00:00 11,4 4,1 4 2 8 5 N 1016,6 20 0 0,0
28.03.2020 23:00:00 12,8 3,8 9 5 21 11 SW 1016,4 20 0 0,0
28.03.2020 22:00:00 13,7 3,4 20 11 21 11 WSW 1016,0 20 0 0,0
28.03.2020 21:00:00 15,0 3,4 14 7 16 9 SW 1015,6 20 6 0,0
28.03.2020 20:00:00 16,1 3,8 8 4 14 8 WSW 1015,2 20 59 -
28.03.2020 19:00:00 16,7 3,4 9 5 16 8 SW 1014,8 20 60 0,0
28.03.2020 18:00:00 17,4 2,9 8 4 16 8 S 1014,7 20 60 0,0
28.03.2020 17:00:00 17,3 3,9 11 6 22 12 SSW 1015,0 20 60 0,0
28.03.2020 16:00:00 17,7 4,3 10 5 19 10 S 1015,3 20 60 0,0
28.03.2020 15:00:00 15,8 2,5 12 6 23 12 SW 1016,1 20 60 0,0
28.03.2020 14:00:00 15,5 4,8 10 5 18 10 WSW 1016,7 20 60 -
28.03.2020 13:00:00 13,1 3,4 10 5 21 11 SW 1017,4 20 60 0,0
28.03.2020 12:00:00 11,1 3,6 8 4 20 11 WSW 1017,8 20 60 0,0
28.03.2020 11:00:00 9,0 3,4 16 9 21 11 W 1017,7 18 31 0,0
28.03.2020 10:00:00 7,0 3,4 16 9 21 11 W 1017,4 20 0 0,0
28.03.2020 09:00:00 6,3 3,8 16 9 26 14 W 1017,1 20 0 0,0
28.03.2020 08:00:00 6,8 4,1 20 11 23 12 W 1016,4 20 0 -
28.03.2020 07:00:00 7,3 4,1 16 9 19 10 W 1016,0 20 0 0,0
28.03.2020 06:00:00 7,7 4,8 13 7 16 9 W 1015,7 20 0 0,0
28.03.2020 05:00:00 7,9 5,1 14 8 16 9 W 1015,6 20 0 0,0
28.03.2020 04:00:00 9,3 4,1 3 1 6 4 NNE 1015,6 20 0 0,0
28.03.2020 03:00:00 10,0 2,3 3 2 11 6 E 1015,5 20 0 0,0
28.03.2020 02:00:00 9,7 3,2 9 5 13 7 SW 1015,1 20 0 -
28.03.2020 01:00:00 10,0 3,0 5 3 9 5 SSW 1014,9 20 0 0,0
28.03.2020 00:00:00 10,4 2,5 5 3 9 5 E 1014,7 20 0 0,0
27.03.2020 23:00:00 11,2 2,7 7 4 9 5 E 1014,1 20 0 0,0
27.03.2020 22:00:00 12,1 0,0 3 2 5 3 S 1013,4 20 0 0,0
27.03.2020 21:00:00 12,4 0,2 5 3 9 5 S 1012,7 20 7 0,0
27.03.2020 20:00:00 13,3 1,7 4 2 10 5 SSE 1012,1 20 60 -
27.03.2020 19:00:00 14,2 0,9 6 3 10 5 SE 1011,6 20 60 0,0
27.03.2020 18:00:00 14,4 1,3 3 2 15 8 ESE 1011,5 20 60 0,0
27.03.2020 17:00:00 13,1 -1,0 7 4 14 8 NE 1011,9 20 60 0,0
27.03.2020 16:00:00 12,6 1,5 6 4 16 8 NNW 1012,3 20 60 0,0
27.03.2020 15:00:00 11,6 3,0 5 3 19 10 NW 1013,0 20 60 0,0
27.03.2020 14:00:00 10,6 2,7 9 5 20 11 W 1013,5 20 56 -
27.03.2020 13:00:00 10,1 3,8 6 4 18 10 W 1014,2 20 59 0,0
27.03.2020 12:00:00 8,8 4,3 13 7 21 11 W 1014,4 20 60 0,0
27.03.2020 11:00:00 6,3 3,8 7 4 14 8 W 1014,8 16 53 0,0
27.03.2020 10:00:00 4,1 3,9 6 4 9 5 SW 1014,8 19 0 0,0
27.03.2020 09:00:00 2,5 2,5 2 1 9 5 SW 1014,5 3,9 16 0,0
27.03.2020 08:00:00 1,7 1,7 4 2 15 8 SW 1013,8 14 0 -
27.03.2020 07:00:00 2,4 2,5 15 8 16 8 WNW 1013,2 20 0 0,0
27.03.2020 06:00:00 2,2 2,1 11 6 15 8 W 1012,8 20 0 0,0
27.03.2020 05:00:00 2,5 2,5 10 5 13 7 W 1012,7 20 0 0,0
27.03.2020 04:00:00 3,4 3,2 3 2 9 5 E 1012,4 14 0 0,0
27.03.2020 03:00:00 3,8 3,4 5 3 12 7 NE 1012,7 20 0 0,0
27.03.2020 02:00:00 4,2 3,8 9 5 16 9 W 1012,3 20 0 -
27.03.2020 01:00:00 5,8 4,5 5 3 12 6 NE 1012,0 20 0 0,0
27.03.2020 00:00:00 6,0 3,4 10 5 11 6 ENE 1012,0 20 0 0,0
26.03.2020 23:00:00 6,0 3,4 7 4 17 9 SE 1011,8 20 0 0,0
26.03.2020 22:00:00 6,2 3,4 14 8 21 11 SE 1011,6 20 0 0,0
26.03.2020 21:00:00 6,7 3,0 11 6 27 14 E 1010,9 20 0 0,0
26.03.2020 20:00:00 7,2 3,2 19 10 34 18 E 1009,8 20 35 -
26.03.2020 19:00:00 8,6 3,4 20 11 44 24 SE 1008,3 20 52 0,0
26.03.2020 18:00:00 11,2 1,7 25 13 40 22 E 1006,8 20 60 0,0
26.03.2020 17:00:00 12,3 0,4 15 8 32 18 ESE 1006,2 20 28 0,0
26.03.2020 16:00:00 11,7 0,2 23 13 52 28 ENE 1006,0 20 6 0,0
26.03.2020 15:00:00 12,8 -2,2 19 11 32 18 NNW 1005,7 20 11 0,0
26.03.2020 14:00:00 12,6 -3,3 26 14 42 23 NNW 1005,8 20 7 -
26.03.2020 13:00:00 12,0 0,6 29 15 52 28 NNW 1006,2 20 12 0,0
26.03.2020 12:00:00 11,1 1,7 36 20 52 28 NW 1006,4 20 36 0,0
26.03.2020 11:00:00 9,5 4,3 25 14 38 20 WNW 1007,0 20 60 0,0
26.03.2020 10:00:00 7,5 2,9 24 13 32 18 WNW 1007,2 20 49 0,0
26.03.2020 09:00:00 6,1 2,5 16 9 31 17 W 1007,6 20 10 0,0
26.03.2020 08:00:00 5,5 2,3 18 10 30 16 W 1008,1 20 0 -
26.03.2020 07:00:00 5,1 3,9 21 11 29 16 W 1008,7 20 0 0,0
26.03.2020 06:00:00 5,6 5,1 16 9 25 14 W 1009,4 15 0 0,0
26.03.2020 05:00:00 5,7 5,1 20 11 31 17 W 1009,7 19 0 0,0
26.03.2020 04:00:00 5,7 5,8 19 11 23 12 W 1010,1 17 0 0,0
26.03.2020 03:00:00 6,7 6,1 10 6 14 7 W 1010,8 20 0 0,0
26.03.2020 02:00:00 7,4 5,1 3 2 8 4 ESE 1011,3 20 0 -
26.03.2020 01:00:00 7,5 4,5 5 3 13 7 E 1012,0 20 0 0,0
26.03.2020 00:00:00 7,6 4,3 9 5 14 8 E 1012,5 20 0 0,0
25.03.2020 23:00:00 7,7 4,5 9 5 13 7 E 1012,5 20 0 0,0
25.03.2020 22:00:00 8,4 4,6 10 6 18 10 E 1012,8 20 0 0,0
25.03.2020 21:00:00 9,3 4,6 13 7 18 10 ENE 1012,7 20 0 0,0
25.03.2020 20:00:00 10,2 3,9 8 4 14 8 ENE 1012,7 20 54 -
25.03.2020 19:00:00 10,9 3,4 3 2 14 7 ENE 1012,9 20 47 0,0
25.03.2020 18:00:00 10,8 3,9 8 4 14 8 E 1013,4 20 48 0,0
25.03.2020 17:00:00 10,8 3,6 11 6 18 10 NE 1014,0 20 35 0,0
25.03.2020 16:00:00 10,1 3,4 5 3 21 12 E 1014,8 20 5 0,0
25.03.2020 15:00:00 10,1 3,9 15 8 30 16 E 1015,1 20 39 0,0
25.03.2020 14:00:00 8,2 3,2 18 10 36 19 E 1016,3 20 3 -
25.03.2020 13:00:00 7,1 3,2 21 12 29 16 E 1016,8 20 0 0,0
25.03.2020 12:00:00 7,2 3,8 19 11 28 15 E 1016,7 20 2 0,0
25.03.2020 11:00:00 6,7 3,6 21 11 32 17 E 1016,7 20 0 0,0
25.03.2020 10:00:00 6,4 5,3 16 9 25 13 E 1016,5 20 0 0,2
25.03.2020 09:00:00 6,7 5,6 15 8 24 13 E 1016,4 19 0 0,2
25.03.2020 08:00:00 7,2 5,1 14 8 28 15 ESE 1015,9 11 0 -
25.03.2020 07:00:00 8,2 4,5 9 5 22 12 E 1015,8 20 0 0,0
25.03.2020 06:00:00 8,3 5,3 14 8 22 12 E 1015,9 20 0 0,0
25.03.2020 05:00:00 8,5 6,4 12 6 20 11 E 1016,2 20 0 0,0
25.03.2020 04:00:00 - - - - - - - - - - -

tt = temperature
td = dewpoint
ff = wind speed
fx = gusts
dd = wind direction
ppp = reduced air pressure
vv = visibility
sd = sunshine duration
rr = precipitation

Next stations